• In Uzbekistan
  • List of Countries
  • For 7 days
  • Water Temperature
  • Satellite Maps
  • Weather Map
  • Weather Widgets
  • user-avatar
    Login

    Hourly Weather Batumi

    Today, 24 September, Sunday

    Time Temperature Precipitation Wind Pressure Humidity
    00:00 +25°C° 0.8 mm 3 mps 764 mmHg 94%
    01:00 +25°C° 0.6 mm 3 mps 764 mmHg 94%
    02:00 +25°C° 0.6 mm 3 mps 764 mmHg 94%
    03:00 +25°C° 0 mm 3 mps 764 mmHg 96%
    04:00 +25°C° 0.9 mm 3 mps 764 mmHg 95%
    05:00 +25°C° 0.9 mm 3 mps 764 mmHg 94%
    06:00 +25°C° 0.9 mm 3 mps 764 mmHg 93%
    07:00 +25°C° 0.4 mm 3 mps 764 mmHg 91%
    08:00 +26°C° 0.4 mm 3 mps 764 mmHg 89%
    09:00 +26°C° 0.4 mm 3 mps 764 mmHg 86%
    10:00 +27°C° 0.2 mm 3 mps 764 mmHg 84%
    11:00 +27°C° 0.2 mm 3 mps 764 mmHg 81%
    12:00 +28°C° 0.2 mm 3 mps 764 mmHg 78%
    13:00 +28°C° 0.1 mm 3 mps 764 mmHg 79%
    14:00 +28°C° 0.1 mm 2 mps 763 mmHg 80%
    15:00 +28°C° 0.1 mm 2 mps 763 mmHg 80%
    16:00 +27°C° 0 mm 2 mps 763 mmHg 84%
    17:00 +26°C° 0 mm 2 mps 763 mmHg 87%
    18:00 +26°C° 0 mm 2 mps 764 mmHg 91%
    19:00 +25°C° 0 mm 2 mps 764 mmHg 92%
    20:00 +25°C° 0 mm 1 mps 764 mmHg 94%
    21:00 +25°C° 0 mm 1 mps 764 mmHg 95%
    22:00 +24°C° 0 mm 1 mps 764 mmHg 95%
    23:00 +24°C° 0 mm 1 mps 765 mmHg 95%

    Tomorrow, 25 September, Monday

    Time Temperature Precipitation Wind Pressure Humidity
    00:00 +24°C° 0 mm 1 mps 765 mmHg 95%
    01:00 +24°C° 0.1 mm 1 mps 765 mmHg 95%
    02:00 +24°C° 0.1 mm 1 mps 765 mmHg 94%
    03:00 +24°C° 0.1 mm 1 mps 765 mmHg 94%
    04:00 +23°C° 0.1 mm 1 mps 764 mmHg 94%
    05:00 +23°C° 0.1 mm 1 mps 764 mmHg 94%
    06:00 +23°C° 0.1 mm 1 mps 764 mmHg 93%
    07:00 +24°C° 0 mm 1 mps 764 mmHg 87%
    08:00 +26°C° 0 mm 1 mps 764 mmHg 80%
    09:00 +28°C° 0 mm 1 mps 764 mmHg 73%
    10:00 +29°C° 0.3 mm 1 mps 763 mmHg 68%
    11:00 +30°C° 0.3 mm 1 mps 763 mmHg 62%
    12:00 +31°C° 0.3 mm 2 mps 763 mmHg 57%
    13:00 +31°C° 0.6 mm 2 mps 762 mmHg 58%
    14:00 +31°C° 0.6 mm 2 mps 762 mmHg 59%
    15:00 +31°C° 0.6 mm 2 mps 761 mmHg 59%
    16:00 +29°C° 0.4 mm 1 mps 761 mmHg 68%
    17:00 +28°C° 0.4 mm 1 mps 761 mmHg 77%
    18:00 +26°C° 0.4 mm 1 mps 761 mmHg 86%
    19:00 +26°C° 0.1 mm 1 mps 762 mmHg 87%
    20:00 +25°C° 0.1 mm 1 mps 762 mmHg 88%
    21:00 +25°C° 0.1 mm 1 mps 762 mmHg 90%
    22:00 +24°C° 0 mm 1 mps 762 mmHg 88%
    23:00 +24°C° 0 mm 1 mps 762 mmHg 86%

    Day after tomorrow, 26 September, Tuesday

    Time Temperature Precipitation Wind Pressure Humidity
    00:00 +24°C° 0 mm 1 mps 762 mmHg 84%
    01:00 +24°C° 0 mm 1 mps 762 mmHg 81%
    02:00 +24°C° 0 mm 2 mps 762 mmHg 79%
    03:00 +23°C° 0 mm 2 mps 762 mmHg 76%
    04:00 +23°C° 0 mm 2 mps 761 mmHg 74%
    05:00 +23°C° 0 mm 2 mps 761 mmHg 71%
    06:00 +23°C° 0 mm 2 mps 761 mmHg 69%
    07:00 +25°C° 0 mm 2 mps 761 mmHg 63%
    08:00 +27°C° 0 mm 2 mps 760 mmHg 57%
    09:00 +29°C° 0 mm 2 mps 760 mmHg 52%
    10:00 +30°C° 0 mm 2 mps 760 mmHg 49%
    11:00 +31°C° 0 mm 2 mps 760 mmHg 46%
    12:00 +32°C° 0 mm 2 mps 759 mmHg 43%
    13:00 +31°C° 0 mm 2 mps 759 mmHg 46%
    14:00 +31°C° 0 mm 2 mps 759 mmHg 50%
    15:00 +31°C° 0 mm 2 mps 759 mmHg 54%
    16:00 +29°C° 0.2 mm 2 mps 759 mmHg 63%
    17:00 +28°C° 0.2 mm 1 mps 759 mmHg 72%
    18:00 +26°C° 0.2 mm 1 mps 759 mmHg 81%
    19:00 +26°C° 0.3 mm 1 mps 759 mmHg 80%
    20:00 +26°C° 0.3 mm 1 mps 760 mmHg 79%
    21:00 +26°C° 0.3 mm 1 mps 760 mmHg 78%
    22:00 +25°C° 0.3 mm 1 mps 760 mmHg 77%
    23:00 +25°C° 0.3 mm 1 mps 760 mmHg 75%

    27 September, Wednesday

    Time Temperature Precipitation Wind Pressure Humidity
    00:00 +25°C° 0.3 mm 1 mps 760 mmHg 74%
    01:00 +24°C° 0.2 mm 1 mps 760 mmHg 74%
    02:00 +24°C° 0.2 mm 1 mps 760 mmHg 74%
    03:00 +23°C° 0.2 mm 1 mps 760 mmHg 74%
    04:00 +23°C° 0.2 mm 1 mps 760 mmHg 75%
    05:00 +23°C° 0.2 mm 1 mps 760 mmHg 76%
    06:00 +23°C° 0.2 mm 1 mps 760 mmHg 78%
    07:00 +24°C° 0.5 mm 2 mps 760 mmHg 76%
    08:00 +25°C° 0.5 mm 2 mps 760 mmHg 74%
    09:00 +26°C° 0.5 mm 2 mps 760 mmHg 73%
    10:00 +27°C° 0.6 mm 3 mps 760 mmHg 71%
    11:00 +27°C° 0.6 mm 3 mps 760 mmHg 70%
    12:00 +28°C° 0.6 mm 4 mps 760 mmHg 69%
    13:00 +27°C° 0.9 mm 4 mps 760 mmHg 71%
    14:00 +27°C° 0.9 mm 4 mps 760 mmHg 74%
    15:00 +26°C° 0.9 mm 4 mps 760 mmHg 76%
    16:00 +26°C° 0.8 mm 5 mps 760 mmHg 80%
    17:00 +25°C° 0.8 mm 5 mps 760 mmHg 85%
    18:00 +23°C° 0.8 mm 5 mps 761 mmHg 89%
    19:00 +22°C° 0.3 mm 4 mps 761 mmHg 90%
    20:00 +22°C° 0.3 mm 4 mps 761 mmHg 91%
    21:00 +22°C° 0.3 mm 4 mps 762 mmHg 92%
    22:00 +22°C° 0.4 mm 4 mps 762 mmHg 93%
    23:00 +21°C° 0.4 mm 4 mps 762 mmHg 94%

    28 September, Thursday

    Time Temperature Precipitation Wind Pressure Humidity
    00:00 +21°C° 0.4 mm 4 mps 762 mmHg 94%
    01:00 +21°C° 0.5 mm 4 mps 761 mmHg 94%
    02:00 +21°C° 0.5 mm 4 mps 761 mmHg 94%
    03:00 +21°C° 0.5 mm 4 mps 761 mmHg 94%
    04:00 +21°C° 0.6 mm 5 mps 761 mmHg 95%
    05:00 +21°C° 0.6 mm 5 mps 761 mmHg 95%
    06:00 +20°C° 0.6 mm 5 mps 761 mmHg 96%
    07:00 +21°C° 0.6 mm 5 mps 761 mmHg 93%
    08:00 +22°C° 0.6 mm 5 mps 762 mmHg 89%
    09:00 +22°C° 0.6 mm 5 mps 762 mmHg 86%
    10:00 +23°C° 0.3 mm 5 mps 762 mmHg 84%
    11:00 +23°C° 0.3 mm 5 mps 762 mmHg 82%
    12:00 +23°C° 0.3 mm 5 mps 762 mmHg 80%
    13:00 +23°C° 0.5 mm 5 mps 762 mmHg 83%
    14:00 +22°C° 0.5 mm 5 mps 762 mmHg 86%
    15:00 +22°C° 0.5 mm 4 mps 762 mmHg 89%
    16:00 +22°C° 0.4 mm 4 mps 762 mmHg 91%
    17:00 +21°C° 0.4 mm 3 mps 762 mmHg 92%
    18:00 +21°C° 0.4 mm 3 mps 763 mmHg 94%
    19:00 +20°C° 0.3 mm 3 mps 763 mmHg 94%
    20:00 +20°C° 0.3 mm 2 mps 763 mmHg 95%
    21:00 +20°C° 0.3 mm 2 mps 764 mmHg 96%
    22:00 +20°C° 0.4 mm 2 mps 764 mmHg 95%
    23:00 +20°C° 0.4 mm 2 mps 764 mmHg 95%

    29 September, Friday

    Time Temperature Precipitation Wind Pressure Humidity
    00:00 +20°C° 0.4 mm 2 mps 764 mmHg 95%
    01:00 +20°C° 0.3 mm 2 mps 764 mmHg 95%
    02:00 +19°C° 0.3 mm 2 mps 763 mmHg 95%
    03:00 +19°C° 0.3 mm 2 mps 763 mmHg 95%
    04:00 +19°C° 0.1 mm 2 mps 763 mmHg 95%
    05:00 +20°C° 0.1 mm 1 mps 763 mmHg 95%
    06:00 +20°C° 0.1 mm 1 mps 763 mmHg 95%
    07:00 +21°C° 0.1 mm 1 mps 763 mmHg 90%
    08:00 +22°C° 0.1 mm 1 mps 763 mmHg 85%
    09:00 +24°C° 0.1 mm 1 mps 762 mmHg 80%
    10:00 +24°C° 0.2 mm 1 mps 762 mmHg 78%
    11:00 +25°C° 0.2 mm 2 mps 762 mmHg 75%
    12:00 +25°C° 0.2 mm 2 mps 761 mmHg 73%
    13:00 +25°C° 0.4 mm 2 mps 761 mmHg 75%
    14:00 +25°C° 0.4 mm 2 mps 760 mmHg 78%
    15:00 +25°C° 0.4 mm 2 mps 760 mmHg 80%
    16:00 +24°C° 0.4 mm 2 mps 760 mmHg 84%
    17:00 +23°C° 0.4 mm 1 mps 760 mmHg 88%
    18:00 +23°C° 0.4 mm 1 mps 760 mmHg 91%
    19:00 +23°C° 0.7 mm 1 mps 761 mmHg 92%
    20:00 +22°C° 0.7 mm 1 mps 761 mmHg 93%
    21:00 +22°C° 0.7 mm 1 mps 761 mmHg 93%
    22:00 +22°C° 0.5 mm 1 mps 761 mmHg 93%
    23:00 +22°C° 0.5 mm 1 mps 760 mmHg 93%
    Show more